Hourly Data Report for February 10, 2017

All times are specified in Local Standard Time (LST). Add 1 hour to adjust for Daylight Saving Time where and when it is observed.

TORONTO INTL A
ONTARIO

43°40'36.000" N
79°37'50.000" W
173.40 m
6158731
71624
YYZ

Download Data

Hourly Data (February 2017)
Hourly Data Report for February 10, 2017
TIME Temp Definition
°C
Dew Point Definition
°C
Rel Hum Definition
%
Wind Dir Definition
10's deg

Wind Spd Definition
km/h
Visibility Definition
km
Stn Press Definition
kPa
Hmdx Definition


Wind Chill Definition


Weather Definition


00:00 -7.7 -13.6 63 27 32 24.1 99.85   -17 LegendNANA
01:00 -7.7 -13.4 64 27 34 24.1 99.87   -17 Mainly Clear
02:00 -7.4 -13.3 63 27 35 24.1 99.95   -17 LegendNANA
03:00 -7.2 -13.3 62 27 31 24.1 100.04   -16 LegendNANA
04:00 -7.2 -13.5 61 26 31 24.1 100.10   -16 Mostly Cloudy
05:00 -7.7 -12.8 67 26 32 24.1 100.13   -17 LegendNANA
06:00 -7.7 -13.2 65 25 35 24.1 100.15   -17 LegendNANA
07:00 -7.5 -13.0 65 24 27 24.1 100.15   -16 Mostly Cloudy
08:00 -7.2 -12.9 64 24 32 24.1 100.23   -16 LegendNANA
09:00 -6.4 -12.5 62 24 27 24.1 100.25   -14 LegendNANA
10:00 -5.3 -12.8 56 24 28 24.1 100.21   -13 Cloudy
11:00 -5.3 -13.0 55 23 23 24.1 100.15   -12 LegendNANA
12:00 -5.3 -13.2 54 22 20 24.1 100.07   -12 LegendNANA
13:00 -5.5 -13.0 56 22 20 24.1 99.98   -12 Cloudy
14:00 -6.4 -9.5 79 19 11 0.8 99.84   -11 Moderate Snow
15:00 -6.4 -8.5 85 14 12 1.2 99.63   -12 Snow
16:00 -4.9 -6.4 89 18 25 1.2 99.43   -12 Snow
17:00 -5.1 -6.9 87 17 22 2.4 99.31   -12 Snow
18:00 -4.5 -6.3 87 16 17 3.2 99.19   -10 Snow
19:00 -4.0 -5.7 88 16 19 6.4 99.13   -10 Snow
20:00 -3.8 -5.2 90 16 18 12.9 98.97   -10 Snow
21:00 -3.0 -5.8 81 16 18 16.1 98.84   -9 Snow
22:00 -2.4 -7.2 70 18 12 24.1 98.79   -7 Mostly Cloudy
23:00 -2.3 -8.2 64 17 7 24.1 98.76   -5 LegendNANA

Notes on Data Quality.

Legend

  • E = Estimated
  • M = Missing
  • NA = Not Available
Date modified: